EN

Hourly Weather Maldon

Today, 24 July, Saturday

Time Temperature Precipitation Wind Pressure Humidity
00:00 +15°C° 0 mm 7 mps 757 mmHg 85%
01:00 +15°C° 0 mm 7 mps 756 mmHg 86%
02:00 +15°C° 0 mm 7 mps 756 mmHg 88%
03:00 +15°C° 0 mm 6 mps 755 mmHg 90%
04:00 +15°C° 0.1 mm 6 mps 755 mmHg 89%
05:00 +16°C° 0.1 mm 7 mps 755 mmHg 89%
06:00 +16°C° 0.1 mm 7 mps 754 mmHg 88%
07:00 +17°C° 0.5 mm 6 mps 754 mmHg 85%
08:00 +19°C° 0.5 mm 6 mps 754 mmHg 81%
09:00 +20°C° 0.5 mm 6 mps 754 mmHg 77%
10:00 +21°C° 0.2 mm 6 mps 754 mmHg 75%
11:00 +21°C° 0.2 mm 5 mps 754 mmHg 72%
12:00 +22°C° 0.2 mm 5 mps 754 mmHg 69%
13:00 +22°C° 0.1 mm 5 mps 754 mmHg 70%
14:00 +22°C° 0.1 mm 5 mps 754 mmHg 70%
15:00 +22°C° 0.1 mm 5 mps 754 mmHg 70%
16:00 +21°C° 0.2 mm 5 mps 754 mmHg 75%
17:00 +20°C° 0.2 mm 5 mps 754 mmHg 80%
18:00 +19°C° 0.2 mm 4 mps 754 mmHg 84%
19:00 +19°C° 0.1 mm 4 mps 754 mmHg 88%
20:00 +18°C° 0.1 mm 3 mps 754 mmHg 91%
21:00 +18°C° 0.1 mm 2 mps 754 mmHg 94%
22:00 +17°C° 0.1 mm 3 mps 754 mmHg 95%
23:00 +17°C° 0.1 mm 3 mps 754 mmHg 95%

Tomorrow, 25 July, Sunday

Time Temperature Precipitation Wind Pressure Humidity
00:00 +17°C° 0.1 mm 3 mps 754 mmHg 96%
01:00 +17°C° 0.3 mm 3 mps 753 mmHg 96%
02:00 +17°C° 0.3 mm 3 mps 753 mmHg 96%
03:00 +16°C° 0.3 mm 3 mps 753 mmHg 96%
04:00 +16°C° 0.6 mm 3 mps 753 mmHg 96%
05:00 +16°C° 0.6 mm 3 mps 753 mmHg 96%
06:00 +16°C° 0.6 mm 3 mps 753 mmHg 96%
07:00 +17°C° 0.2 mm 3 mps 753 mmHg 93%
08:00 +18°C° 0.2 mm 3 mps 753 mmHg 90%
09:00 +19°C° 0.2 mm 3 mps 753 mmHg 87%
10:00 +20°C° 0.4 mm 3 mps 753 mmHg 82%
11:00 +21°C° 0.4 mm 3 mps 753 mmHg 77%
12:00 +22°C° 0.4 mm 3 mps 753 mmHg 71%
13:00 +22°C° 1.2 mm 3 mps 753 mmHg 73%
14:00 +21°C° 1.2 mm 3 mps 753 mmHg 74%
15:00 +21°C° 1.2 mm 3 mps 753 mmHg 75%
16:00 +20°C° 0.7 mm 2 mps 753 mmHg 79%
17:00 +20°C° 0.7 mm 2 mps 753 mmHg 82%
18:00 +19°C° 0.7 mm 2 mps 753 mmHg 85%
19:00 +19°C° 0.3 mm 2 mps 753 mmHg 88%
20:00 +18°C° 0.3 mm 2 mps 754 mmHg 91%
21:00 +17°C° 0.3 mm 2 mps 754 mmHg 93%
22:00 +17°C° 0.3 mm 2 mps 754 mmHg 94%
23:00 +17°C° 0.3 mm 2 mps 754 mmHg 94%

Day after tomorrow, 26 July, Monday

Time Temperature Precipitation Wind Pressure Humidity
00:00 +16°C° 0.3 mm 2 mps 754 mmHg 95%
01:00 +16°C° 0 mm 2 mps 754 mmHg 95%
02:00 +16°C° 0 mm 3 mps 754 mmHg 96%
03:00 +16°C° 0 mm 3 mps 754 mmHg 96%
04:00 +16°C° 0 mm 3 mps 755 mmHg 95%
05:00 +17°C° 0 mm 3 mps 755 mmHg 94%
06:00 +17°C° 0 mm 3 mps 755 mmHg 93%
07:00 +18°C° 0 mm 3 mps 755 mmHg 87%
08:00 +19°C° 0 mm 3 mps 756 mmHg 81%
09:00 +20°C° 0 mm 3 mps 756 mmHg 75%
10:00 +22°C° 0 mm 3 mps 756 mmHg 68%
11:00 +24°C° 0 mm 3 mps 756 mmHg 61%
12:00 +26°C° 0 mm 3 mps 756 mmHg 55%
13:00 +25°C° 0.1 mm 3 mps 755 mmHg 56%
14:00 +25°C° 0.1 mm 3 mps 755 mmHg 57%
15:00 +25°C° 0.1 mm 3 mps 755 mmHg 58%
16:00 +24°C° 0.2 mm 3 mps 755 mmHg 61%
17:00 +24°C° 0.2 mm 3 mps 755 mmHg 64%
18:00 +22°C° 0.2 mm 3 mps 755 mmHg 67%
19:00 +21°C° 0 mm 3 mps 755 mmHg 70%
20:00 +20°C° 0 mm 3 mps 755 mmHg 73%
21:00 +19°C° 0 mm 3 mps 755 mmHg 75%
22:00 +19°C° 0 mm 3 mps 755 mmHg 78%
23:00 +19°C° 0 mm 3 mps 755 mmHg 80%

27 July, Tuesday

Time Temperature Precipitation Wind Pressure Humidity
00:00 +19°C° 0 mm 3 mps 755 mmHg 82%
01:00 +18°C° 0 mm 3 mps 755 mmHg 85%
02:00 +18°C° 0 mm 3 mps 755 mmHg 88%
03:00 +17°C° 0 mm 3 mps 755 mmHg 90%
04:00 +18°C° 0 mm 3 mps 755 mmHg 89%
05:00 +18°C° 0 mm 3 mps 755 mmHg 88%
06:00 +18°C° 0 mm 3 mps 755 mmHg 87%
07:00 +20°C° 0 mm 3 mps 755 mmHg 81%
08:00 +21°C° 0 mm 3 mps 755 mmHg 74%
09:00 +22°C° 0 mm 3 mps 755 mmHg 68%
10:00 +24°C° 0.1 mm 3 mps 755 mmHg 64%
11:00 +25°C° 0.1 mm 4 mps 755 mmHg 59%
12:00 +26°C° 0.1 mm 4 mps 755 mmHg 54%
13:00 +26°C° 0.3 mm 4 mps 755 mmHg 54%
14:00 +26°C° 0.3 mm 5 mps 754 mmHg 54%
15:00 +26°C° 0.3 mm 5 mps 754 mmHg 54%
16:00 +25°C° 0.2 mm 5 mps 754 mmHg 59%
17:00 +23°C° 0.2 mm 5 mps 754 mmHg 63%
18:00 +22°C° 0.2 mm 6 mps 754 mmHg 68%
19:00 +21°C° 0 mm 5 mps 755 mmHg 72%
20:00 +20°C° 0 mm 5 mps 755 mmHg 76%
21:00 +19°C° 0 mm 5 mps 755 mmHg 81%
22:00 +17°C° 0 mm 5 mps 755 mmHg 83%
23:00 +16°C° 0 mm 5 mps 756 mmHg 85%

28 July, Wednesday

Time Temperature Precipitation Wind Pressure Humidity
00:00 +15°C° 0 mm 5 mps 756 mmHg 87%
01:00 +14°C° 0 mm 5 mps 756 mmHg 87%
02:00 +14°C° 0 mm 5 mps 756 mmHg 87%
03:00 +13°C° 0 mm 5 mps 756 mmHg 87%
04:00 +14°C° 0 mm 5 mps 756 mmHg 86%
05:00 +14°C° 0 mm 5 mps 756 mmHg 85%
06:00 +14°C° 0 mm 5 mps 757 mmHg 84%
07:00 +16°C° 0 mm 5 mps 757 mmHg 77%
08:00 +17°C° 0 mm 6 mps 757 mmHg 70%
09:00 +19°C° 0 mm 6 mps 757 mmHg 62%
10:00 +20°C° 0 mm 6 mps 757 mmHg 59%
11:00 +21°C° 0 mm 6 mps 757 mmHg 55%
12:00 +22°C° 0 mm 7 mps 756 mmHg 52%
13:00 +22°C° 0 mm 7 mps 756 mmHg 52%
14:00 +22°C° 0 mm 7 mps 756 mmHg 53%
15:00 +22°C° 0 mm 8 mps 756 mmHg 54%
16:00 +22°C° 0.1 mm 8 mps 756 mmHg 57%
17:00 +21°C° 0.1 mm 8 mps 756 mmHg 61%
18:00 +20°C° 0.1 mm 8 mps 756 mmHg 64%
19:00 +18°C° 0 mm 8 mps 756 mmHg 70%
20:00 +17°C° 0 mm 7 mps 756 mmHg 76%
21:00 +16°C° 0 mm 7 mps 756 mmHg 81%
22:00 +16°C° 0 mm 6 mps 756 mmHg 84%
23:00 +15°C° 0 mm 6 mps 756 mmHg 87%

29 July, Thursday

Time Temperature Precipitation Wind Pressure Humidity
00:00 +14°C° 0 mm 6 mps 756 mmHg 89%
01:00 +14°C° 0 mm 5 mps 756 mmHg 90%
02:00 +13°C° 0 mm 5 mps 756 mmHg 90%
03:00 +13°C° 0 mm 5 mps 756 mmHg 90%
04:00 +13°C° 0 mm 5 mps 756 mmHg 88%
05:00 +14°C° 0 mm 5 mps 756 mmHg 86%
06:00 +14°C° 0 mm 5 mps 756 mmHg 84%
07:00 +15°C° 0 mm 5 mps 756 mmHg 75%
08:00 +17°C° 0 mm 6 mps 756 mmHg 66%
09:00 +19°C° 0 mm 6 mps 756 mmHg 58%
10:00 +20°C° 0.1 mm 6 mps 756 mmHg 54%
11:00 +21°C° 0.1 mm 7 mps 755 mmHg 50%
12:00 +22°C° 0.1 mm 7 mps 755 mmHg 46%
13:00 +22°C° 0 mm 7 mps 755 mmHg 48%
14:00 +22°C° 0 mm 7 mps 754 mmHg 51%
15:00 +21°C° 0 mm 7 mps 754 mmHg 54%
16:00 +20°C° 0.3 mm 6 mps 754 mmHg 64%
17:00 +17°C° 0.3 mm 6 mps 753 mmHg 74%
18:00 +16°C° 0.3 mm 5 mps 753 mmHg 83%
19:00 +16°C° 0.5 mm 5 mps 753 mmHg 85%
20:00 +15°C° 0.5 mm 6 mps 753 mmHg 87%
21:00 +15°C° 0.5 mm 7 mps 753 mmHg 89%
22:00 +14°C° 0.1 mm 6 mps 753 mmHg 90%
23:00 +13°C° 0.1 mm 6 mps 753 mmHg 90%
Show more